Location: Ferma
(41.9500°N, 44.5167°E)
Time: 06:56:41
(UTC+00:00)

Cosmos 1269 Rocket - Pass Details

Date: 02 June 2022
Orbit: 773 x 778 km, 74.1° (Epoch: 03 July)

Event Time Altitude Azimuth Distance (km) Brightness Sun altitude
Rises 20:09:10 0° 350° (N) 3,258 8.7 -24.7°
Reaches altitude 10° 20:11:59 10° 4° (N) 2,327 7.5 -24.8°
Maximum altitude 20:16:16 25° 59° (ENE) 1,543 5.7 -25.0°
Enters shadow 20:18:09 20° 90° (E) 1,720 5.7 -25.1°
